Simultaneous Nadir Overpasses (SNOs) Predictions

Prediction of SNOs between LANDSAT-8 and NOAA-19 Satellite Orbit:

Table of predicted SNOs for the next 14.0 days since TLE Epoch: 6/30/2017
Index Date (LANDSAT-8) Time (LANDSAT-8) Lat,Lon (LANDSAT-8) SZA (LANDSAT-8 ) Date (NOAA-19) Time (NOAA-19) Lat,Lon (NOAA-19) SZA (NOAA-19 ) Distance(km) Time Diff (sec)
1 07/01/2017 15:10:37 -76.30, 141.51 126.68 07/01/2017 15:10:00 -76.32, 141.44 126.67 2.87 37
2 07/01/2017 16:00:04 76.24, -51.04 53.26 07/01/2017 16:01:02 76.23, -50.98 53.26 2.12 58
3 07/03/2017 20:44:21 76.29,-121.97 53.48 07/03/2017 20:43:52 76.32,-121.97 53.51 4.09 29
4 07/03/2017 21:33:49 -76.26, 45.58 126.55 07/03/2017 21:34:47 -76.23, 45.63 126.56 2.92 58
5 07/06/2017 02:18:06 -76.30, -25.34 126.30 07/06/2017 02:17:36 -76.31, -25.28 126.30 1.68 30
6 07/06/2017 03:07:33 76.24, 142.09 53.63 07/06/2017 03:08:40 76.26, 142.11 53.67 2.97 67
7 07/08/2017 07:51:49 76.33, 71.31 53.97 07/08/2017 07:51:29 76.32, 71.26 53.96 1.61 20
8 07/08/2017 08:41:18 -76.26,-121.29 126.11 07/08/2017 08:42:24 -76.27,-121.27 126.09 1.22 66
9 07/10/2017 13:25:34 -76.35, 167.94 125.74 07/10/2017 13:25:13 -76.34, 167.80 125.75 3.66 21
10 07/10/2017 14:15:03 76.18, -24.96 54.08 07/10/2017 14:16:15 76.18, -24.35 54.12 16.25 72
11 07/12/2017 18:59:18 76.32, -95.59 54.53 07/12/2017 18:59:06 76.33, -95.57 54.55 1.98 12




NCC Satellite Simultaneous Nadir Overpasses (SNOs) Prediction Service
